Regional Weather Roundup
Issued by NWS Kansas City/Pleasant Hill, MO

Home | Current Version | Previous Version | Text Only | Print | Product List | Glossary On
Versions: 1 2 3 4 5 6 7 8 9 10 11 12 13 14 15 16 17 18 19 20 21 22 23 24 25 26 27 28 29 30 31 32 33 34 35 36 37 38 39 40 41 42 43 44 45 46 47 48 49 50
000
ASUS43 KEAX 060810
RWREAX

WEATHER ROUNDUP FOR EASTERN KANSAS AND NORTHWEST MISSOURI
NATIONAL WEATHER SERVICE KANSAS CITY/PLEASANT HILL MO
200 AM CST SAT FEB 06 2016

KSZ040-057-103>105-MOZ028-029-037-043-060900-
...KANSAS CITY METROPOLITAN AREA...

CITY           SKY/WX    TMP DP  RH WIND       PRES   REMARKS
K.C. INTL      CLEAR     31  24  75 NE6       30.24S WCI  25
K.C. DOWNTOWN  PTCLDY    33  25  72 CALM      30.24F
LEES SUMMIT    PTCLDY    36  24  62 S12       30.24F WCI  28
OLATHE - IXD   CLEAR     34  25  69 SE7       30.24F WCI  28
OLATHE - OJC   CLEAR     33  24  69 S6        30.24F WCI  28
LAWRENCE       PTCLDY    26  24  92 N6        30.25F WCI  19

$$

MOZ001>008-011>017-020>025-030>033-038>040-044>046-053-054-060900-
...NORTHERN AND CENTRAL MISSOURI...

CITY           SKY/WX    TMP DP  RH WIND       PRES   REMARKS
ST. JOSEPH     CLEAR     25  22  88 N5        30.27S WCI  19
MOSBY          SUNNY     30  27  86 CALM      30.25F
WARRENSBURG    MOCLDY    34  23  64 S6        30.27S WCI  29
WHITEMAN AFB   MOCLDY    33  23  64 S5        30.26S WCI  29
CLINTON          N/A     34  28  80 CALM      30.28S
SEDALIA        CLOUDY    35  20  54 S8        30.28S WCI  29
WARSAW         NOT AVBL
CHILLICOTHE      N/A     28  23  81 CALM      30.28S
KIRKSVILLE     CLOUDY    29  20  69 S7        30.27F WCI  22

$$

MOZ041-047>049-056>058-063>065-088>090-097-060900-
...EASTERN AND SOUTHERN MISSOURI...

CITY           SKY/WX    TMP DP  RH WIND       PRES   REMARKS
ST. LOUIS INTL CLOUDY    32  22  66 E3        30.32S
SPIRIT OF STL  CLOUDY    29  24  82 CALM      30.31S
COLUMBIA       MOCLDY    31  18  58 SE7       30.28S WCI  24
JEFFERSON CITY CLOUDY    31  20  63 SE6       30.30F WCI  25
ROLLA          CLEAR     29  19  66 SW6       30.26S WCI  23
OSAGE BEACH    CLOUDY    34  19  55 CALM      30.29S
SPRINGFIELD    MOCLDY    32  18  56 S6        30.28R WCI  26
BRANSON        MOCLDY    37  14  38 S3        30.30F
JOPLIN         CLEAR     40  19  43 S10       30.28S WCI  33
WEST PLAINS    CLEAR     35  14  42 SW6       30.31S WCI  30

$$

IAZ060-094-KSZ022-034>040-054-083-096-NEZ052-066-093-060900-
...KANSAS...SOUTHEAST NEBRASKA AND IOWA...

CITY           SKY/WX    TMP DP  RH WIND       PRES   REMARKS
TOPEKA         CLEAR     27  23  85 NW3       30.27R
MANHATTAN      CLEAR     24  22  91 CALM      30.28S
EMPORIA        PTCLDY    28  22  78 W5        30.26R WCI  23
CHANUTE        PTCLDY    33  25  72 S7        30.26F WCI  27
WICHITA        MOCLDY    33  26  75 CALM      30.29R
OMAHA          CLOUDY    30  28  92 NW8       30.26S WCI  22
LINCOLN        CLOUDY    34  29  82 NW7       30.28S WCI  28
FALLS CITY     CLEAR     28  24  85 NW3       30.26S
LAMONI         CLEAR     26  21  81 SW7       30.24F WCI  18
DES MOINES     CLOUDY    31  26  82 S6        30.24F WCI  25

$$




USA.gov is the U.S. government's official web portal to all federal, state and local government web resources and services.